Weather History for Ohio State University, OH

Change the Weather History Date:

Monday, October 21, 2013

  Actual Average Record
Temperature  
Mean Temperature 54 °F -  
Max Temperature 66 °F 59 °F 79 °F (2007)
Min Temperature 43 °F 40 °F 30 °F (1997)
Degree Days  
Heating Degree Days 10    
Growing Degree Days 4 (Base 50)    
Moisture  
Dew Point 40 °F    
Average Humidity 64    
Maximum Humidity 94    
Minimum Humidity 36    
Precipitation  
Precipitation 0.02 in - - ()
Sea Level Pressure  
Sea Level Pressure 29.95 in    
Wind  
Wind Speed 10 mph (SSW)    
Max Wind Speed 21 mph    
Max Gust Speed 29 mph    
Visibility 10 miles    
Events Rain    
Averages and records for this station are not official NWS values.
T = Trace of Precipitation, MM = Missing Value Source: NWS Daily Summary

Daily Weather History Graph

Daily Weather History Graph

Search for Another Location

Airport:

Trip Planner

Search our weather history database for the weather conditions in past years. The results will help you decide how hot, cold, wet, or windy it might be!

Date:

Astronomy

Oct. 21, 2013 Rise Set
Actual Time 7:49 AM EDT 6:43 PM EDT
Civil Twilight 7:21 AM EDT 7:11 PM EDT
Nautical Twilight 6:50 AM EDT 7:42 PM EDT
Astronomical Twilight 6:18 AM EDT 8:14 PM EDT
Moon 8:35 PM EDT (10/21) 10:23 AM EDT (10/21)
Length of Visible Light 11h 49m
Length of Day
10h 54m
Waning Gibbous, 93% of the Moon is Illuminated
Oct 21
Waning Gibbous
Oct 26
Last Quarter
Nov 3
New
Nov 10
First Quarter
Nov 17
Full

Hourly Weather History & Observations

Time (EDT) Temp. Windchill Dew Point Humidity Pressure Visibility Wind Dir Wind Speed Gust Speed Precip Events Conditions
12:53 AM 46.9 °F - 37.9 °F 71% 30.00 in 10.0 mi South 8.1 mph - N/A   Clear
1:53 AM 45.0 °F 42.6 °F 37.9 °F 76% 30.01 in 10.0 mi SSW 4.6 mph - N/A   Clear
2:53 AM 44.1 °F 41.5 °F 37.9 °F 79% 30.00 in 10.0 mi South 4.6 mph - N/A   Clear
3:53 AM 43.0 °F 39.5 °F 37.9 °F 82% 30.01 in 10.0 mi South 5.8 mph - N/A   Clear
4:53 AM 43.0 °F 38.8 °F 37.0 °F 80% 30.01 in 10.0 mi South 6.9 mph - N/A   Clear
5:53 AM 43.0 °F 38.2 °F 37.0 °F 80% 30.01 in 10.0 mi South 8.1 mph - N/A   Clear
6:53 AM 43.0 °F 37.7 °F 37.0 °F 80% 30.01 in 10.0 mi South 9.2 mph - N/A   Clear
7:53 AM 43.0 °F 38.2 °F 37.0 °F 80% 30.01 in 10.0 mi South 8.1 mph - N/A   Clear
8:53 AM 45.0 °F 41.2 °F 37.9 °F 76% 30.02 in 10.0 mi South 6.9 mph - N/A   Clear
9:53 AM 48.9 °F - 39.0 °F 69% 30.01 in 10.0 mi South 6.9 mph - N/A   Clear
10:53 AM 55.0 °F - 41.0 °F 59% 30.00 in 10.0 mi SSW 12.7 mph 17.3 mph N/A   Clear
11:53 AM 60.1 °F - 42.1 °F 51% 29.97 in 10.0 mi SSW 12.7 mph 19.6 mph N/A   Clear
12:53 PM 63.0 °F - 39.0 °F 41% 29.95 in 10.0 mi SSW 16.1 mph 25.3 mph N/A   Clear
1:53 PM 64.9 °F - 39.0 °F 39% 29.92 in 10.0 mi SSW 13.8 mph 28.8 mph N/A   Clear
2:53 PM 64.9 °F - 37.9 °F 37% 29.89 in 10.0 mi SSW 18.4 mph 24.2 mph N/A   Clear
3:53 PM 66.0 °F - 37.9 °F 36% 29.88 in 10.0 mi SSW 20.7 mph 27.6 mph N/A   Clear
4:53 PM 64.0 °F - 37.0 °F 37% 29.88 in 10.0 mi SSW 13.8 mph - N/A   Mostly Cloudy
5:53 PM 62.1 °F - 36.0 °F 38% 29.88 in 10.0 mi SW 13.8 mph 20.7 mph N/A   Overcast
6:53 PM 62.1 °F - 37.0 °F 39% 29.89 in 10.0 mi SW 13.8 mph - N/A   Overcast
7:53 PM 61.0 °F - 37.9 °F 42% 29.89 in 10.0 mi SW 11.5 mph - N/A   Overcast
8:53 PM 60.1 °F - 39.0 °F 46% 29.88 in 10.0 mi SW 10.4 mph - N/A   Overcast
9:53 PM 55.0 °F - 46.9 °F 74% 29.90 in 10.0 mi WNW 9.2 mph - N/A   Overcast
10:53 PM 53.1 °F - 48.9 °F 86% 29.90 in 10.0 mi WNW 11.5 mph - 0.00 in Rain Light Rain
11:00 PM 51.8 °F - 48.2 °F 88% 29.90 in 10.0 mi WNW 15.0 mph 21.9 mph 0.00 in Rain Light Rain
11:21 PM 50.0 °F - 48.2 °F 94% 29.91 in 6.0 mi WNW 13.8 mph - 0.00 in Rain Light Rain
11:53 PM 48.0 °F - 45.0 °F 89% 29.92 in 7.0 mi WNW 18.4 mph 26.5 mph 0.02 in Rain Light Rain